New Century, KS

11:23 AM CST on February 19, 2017 (GMT -0600)
New Century Aircenter

Weather History for KIXD - January, 2014

Change the Weather History Date:

Tuesday, January 21, 2014

  Actual Average Record
Temperature  
Mean Temperature 11 °F -  
Max Temperature 19 °F 37 °F 62 °F (1997)
Min Temperature 3 °F 19 °F 3 °F (2014)
Degree Days  
Heating Degree Days 54    
Moisture  
Dew Point -3 °F    
Average Humidity 49    
Maximum Humidity 66    
Minimum Humidity 29    
Precipitation  
Precipitation 0.00 in - - ()
Sea Level Pressure  
Sea Level Pressure 30.37 in    
Wind  
Wind Speed 16 mph (WNW)    
Max Wind Speed 28 mph    
Max Gust Speed 40 mph    
Visibility 10 miles    
Events      
Averages and records for this station are not official NWS values.
T = Trace of Precipitation, MM = Missing Value Source: NWS Daily Summary

Daily Weather History Graph

Daily Weather History Graph

Search for Another Location

Airport or City:

Trip Planner

Search our weather history database for the weather conditions in past years. The results will help you decide how hot, cold, wet, or windy it might be!

Date:

Astronomy

Jan. 21, 2014 Rise Set
Actual Time 7:33 AM CST 5:28 PM CST
Civil Twilight 7:04 AM CST 5:57 PM CST
Nautical Twilight 6:32 AM CST 6:29 PM CST
Astronomical Twilight 6:00 AM CST 7:01 PM CST
Moon 10:58 PM CST (1/21) 10:07 AM CST (1/21)
Length of Visible Light 10h 52m
Length of Day
9h 54m
Waning Gibbous, 74% of the Moon is Illuminated
Jan 21
Waning Gibbous
Jan 23
Last Quarter
Jan 30
New
Feb 6
First Quarter
Feb 14
Full

Hourly Weather History & Observations

Time (CST) Temp. Windchill Dew Point Humidity Pressure Visibility Wind Dir Wind Speed Gust Speed Precip Events Conditions
12:53 AM 16.0 °F -3.5 °F 5.0 °F 62% 30.34 in 10.0 mi NNW 27.6 mph 40.3 mph 0.00 in   Overcast
1:53 AM 12.9 °F -6.9 °F 3.0 °F 65% 30.39 in 10.0 mi NNW 25.3 mph 32.2 mph N/A   Scattered Clouds
2:53 AM 10.0 °F -9.5 °F -0.0 °F 64% 30.43 in 10.0 mi NNW 21.9 mph 34.5 mph N/A   Clear
3:53 AM 8.1 °F -11.7 °F -2.0 °F 64% 30.45 in 10.0 mi NNW 20.7 mph 29.9 mph N/A   Clear
4:53 AM 6.1 °F -12.8 °F -4.0 °F 63% 30.48 in 10.0 mi NNW 17.3 mph - N/A   Clear
5:53 AM 5.0 °F -13.0 °F -4.0 °F 66% 30.49 in 10.0 mi NNW 15.0 mph - N/A   Clear
6:53 AM 3.9 °F -16.1 °F -6.0 °F 64% 30.50 in 10.0 mi NNW 18.4 mph - N/A   Clear
7:53 AM 3.0 °F -11.5 °F -6.0 °F 66% 30.51 in 10.0 mi NNW 9.2 mph - N/A   Clear
8:53 AM 5.0 °F -10.0 °F -6.0 °F 61% 30.51 in 10.0 mi NNW 10.4 mph - 0.00 in   Clear
9:53 AM 8.1 °F -4.3 °F -5.1 °F 55% 30.53 in 10.0 mi NNW 8.1 mph - 0.00 in   Clear
10:53 AM 10.9 °F -0.8 °F -6.0 °F 47% 30.51 in 10.0 mi NNW 8.1 mph - N/A   Clear
11:53 AM 12.9 °F 6.9 °F -7.1 °F 41% 30.48 in 10.0 mi Variable 3.5 mph - N/A   Clear
12:53 PM 14.0 °F 5.1 °F -7.1 °F 39% 30.43 in 10.0 mi Variable 5.8 mph - 0.00 in   Clear
1:53 PM 17.1 °F 11.7 °F -8.0 °F 33% 30.36 in 10.0 mi Variable 3.5 mph - 0.00 in   Clear
2:53 PM 18.0 °F - -8.0 °F 31% 30.31 in 10.0 mi Calm Calm - N/A   Clear
3:53 PM 19.9 °F 8.6 °F -8.0 °F 29% 30.26 in 10.0 mi SSW 10.4 mph - N/A   Clear
4:53 PM 19.9 °F 11.1 °F -7.1 °F 30% 30.27 in 10.0 mi South 6.9 mph - N/A   Clear
5:53 PM 19.9 °F 10.1 °F -5.1 °F 33% 30.25 in 10.0 mi SSE 8.1 mph - N/A   Clear
6:53 PM 19.9 °F 8.6 °F -2.9 °F 37% 30.25 in 10.0 mi South 10.4 mph - N/A   Overcast
7:53 PM 19.9 °F 10.1 °F -0.9 °F 40% 30.24 in 10.0 mi South 8.1 mph - N/A   Overcast
8:53 PM 18.0 °F 11.1 °F -0.9 °F 44% 30.22 in 10.0 mi South 4.6 mph - N/A   Scattered Clouds
9:53 PM 18.0 °F 6.9 °F 1.0 °F 48% 30.19 in 10.0 mi South 9.2 mph - N/A   Mostly Cloudy
10:53 PM 18.0 °F 8.7 °F -0.0 °F 45% 30.19 in 10.0 mi South 6.9 mph - N/A   Mostly Cloudy
11:53 PM 15.1 °F 6.4 °F 1.9 °F 56% 30.18 in 10.0 mi South 5.8 mph - N/A   Clear